Time,TemperatureF,DewpointF,PressureIn,WindDirection,WindDirectionDegrees,WindSpeedMPH,WindSpeedGustMPH,Humidity,HourlyPrecipIn,Conditions,Clouds,dailyrainin,SoftwareType,DateUTC
2013-01-21 00:00:00,22.3,1.6,30.01,NE,52,4.5,5.4,40,0.00,,---,0.00,VWS V14.01,2013-01-21 05:00:00,
2013-01-21 00:02:00,22.3,1.6,30.01,NW,318,3.1,3.6,40,0.00,,---,0.00,VWS V14.01,2013-01-21 05:02:00,
2013-01-21 00:03:00,22.3,1.6,30.01,NW,313,4.9,6.3,40,0.00,,---,0.00,VWS V14.01,2013-01-21 05:03:00,
2013-01-21 00:08:00,22.3,1.6,30.01,NW,314,3.1,4.0,40,0.00,,---,0.00,VWS V14.01,2013-01-21 05:08:00,
2013-01-21 00:13:00,22.3,1.6,30.01,North,351,2.7,4.0,40,0.00,,---,0.00,VWS V14.01,2013-01-21 05:13:00,
2013-01-21 00:18:00,22.1,1.5,30.01,West,267,0.0,0.0,40,0.00,,---,0.00,VWS V14.01,2013-01-21 05:18:00,
2013-01-21 00:23:00,22.1,1.5,30.01,WNW,283,0.0,2.7,40,0.00,,---,0.00,VWS V14.01,2013-01-21 05:23:00,
2013-01-21 00:28:00,22.1,1.5,30.01,West,274,5.4,5.4,40,0.00,,---,0.00,VWS V14.01,2013-01-21 05:28:00,
2013-01-21 00:33:00,22.1,1.5,30.01,West,274,3.1,3.1,40,0.00,,---,0.00,VWS V14.01,2013-01-21 05:33:00,
2013-01-21 00:38:00,21.9,1.3,30.01,WSW,258,0.0,2.7,40,0.00,,---,0.00,VWS V14.01,2013-01-21 05:38:00,
2013-01-21 00:43:00,21.9,1.3,30.01,NW,316,4.0,4.0,40,0.00,,---,0.00,VWS V14.01,2013-01-21 05:43:00,
2013-01-21 00:48:00,21.9,1.3,30.01,West,275,4.5,4.5,40,0.00,,---,0.00,VWS V14.01,2013-01-21 05:48:00,
2013-01-21 00:53:00,21.7,1.1,30.01,WSW,255,0.0,0.0,40,0.00,,---,0.00,VWS V14.01,2013-01-21 05:53:00,
2013-01-21 00:58:00,21.7,1.1,30.01,WSW,255,0.0,0.0,40,0.00,,---,0.00,VWS V14.01,2013-01-21 05:58:00,
2013-01-21 01:03:00,21.6,1.0,30.01,West,259,4.0,4.0,40,0.00,,---,0.00,VWS V14.01,2013-01-21 06:03:00,
2013-01-21 01:08:00,21.6,1.0,30.01,West,277,4.5,4.5,40,0.00,,---,0.00,VWS V14.01,2013-01-21 06:08:00,
2013-01-21 01:13:00,21.6,1.0,30.01,WSW,248,4.0,4.0,40,0.00,,---,0.00,VWS V14.01,2013-01-21 06:13:00,
2013-01-21 01:18:00,21.6,1.0,30.01,SSW,207,4.0,4.0,40,0.00,,---,0.00,VWS V14.01,2013-01-21 06:18:00,
2013-01-21 01:23:00,21.7,1.1,30.01,WSW,242,5.4,5.8,40,0.00,,---,0.00,VWS V14.01,2013-01-21 06:23:00,
2013-01-21 01:28:00,21.9,1.3,30.01,WSW,241,5.8,5.8,40,0.00,,---,0.00,VWS V14.01,2013-01-21 06:28:00,
2013-01-21 01:33:00,22.1,1.5,30.01,West,261,4.5,4.9,40,0.00,,---,0.00,VWS V14.01,2013-01-21 06:33:00,
2013-01-21 01:38:00,22.3,1.6,30.01,West,264,4.5,4.5,40,0.00,,---,0.00,VWS V14.01,2013-01-21 06:38:00,
2013-01-21 01:43:00,22.3,1.6,30.01,West,259,2.7,2.7,40,0.00,,---,0.00,VWS V14.01,2013-01-21 06:43:00,
2013-01-21 01:48:00,22.5,1.8,30.01,WSW,240,0.0,0.0,40,0.00,,---,0.00,VWS V14.01,2013-01-21 06:48:00,
2013-01-21 01:53:00,22.5,1.8,30.01,West,264,5.8,5.8,40,0.00,,---,0.00,VWS V14.01,2013-01-21 06:53:00,
2013-01-21 01:58:00,22.6,2.0,30.01,West,272,2.7,3.1,40,0.00,,---,0.00,VWS V14.01,2013-01-21 06:58:00,
2013-01-21 02:03:00,22.6,2.0,30.01,West,268,0.0,0.0,40,0.00,,---,0.00,VWS V14.01,2013-01-21 07:03:00,
2013-01-21 02:08:00,22.6,2.0,30.01,West,264,2.7,2.7,40,0.00,,---,0.00,VWS V14.01,2013-01-21 07:08:00,
2013-01-21 02:13:00,22.6,2.0,30.01,WSW,241,0.0,0.0,40,0.00,,---,0.00,VWS V14.01,2013-01-21 07:13:00,
2013-01-21 02:18:00,22.6,2.0,30.01,SW,225,0.0,0.0,40,0.00,,---,0.00,VWS V14.01,2013-01-21 07:18:00,
2013-01-21 02:23:00,22.6,2.0,30.01,WSW,243,3.6,3.6,40,0.00,,---,0.00,VWS V14.01,2013-01-21 07:23:00,
2013-01-21 02:28:00,22.6,2.0,30.01,SW,231,3.6,3.6,40,0.00,,---,0.00,VWS V14.01,2013-01-21 07:28:00,
2013-01-21 02:33:00,22.8,2.1,30.01,SW,231,0.0,0.0,40,0.00,,---,0.00,VWS V14.01,2013-01-21 07:33:00,
2013-01-21 02:38:00,22.8,2.1,30.01,SW,231,0.0,0.0,40,0.00,,---,0.00,VWS V14.01,2013-01-21 07:38:00,
2013-01-21 02:43:00,23.2,4.0,30.01,SW,231,0.0,0.0,43,0.00,,---,0.00,VWS V14.01,2013-01-21 07:43:00,
2013-01-21 02:48:00,23.2,4.0,30.01,SW,231,0.0,0.0,43,0.00,,---,0.00,VWS V14.01,2013-01-21 07:48:00,
2013-01-21 02:53:00,23.2,4.0,30.01,SW,231,0.0,0.0,43,0.00,,---,0.00,VWS V14.01,2013-01-21 07:53:00,
2013-01-21 02:58:00,23.0,3.8,30.01,SW,231,0.0,0.0,43,0.00,,---,0.00,VWS V14.01,2013-01-21 07:58:00,
2013-01-21 03:03:00,23.0,3.8,30.01,SW,231,0.0,0.0,43,0.00,,---,0.00,VWS V14.01,2013-01-21 08:03:00,
2013-01-21 03:08:00,23.0,3.8,30.01,SW,231,0.0,0.0,43,0.00,,---,0.00,VWS V14.01,2013-01-21 08:08:00,
2013-01-21 03:13:00,23.0,3.8,30.01,SSE,161,0.0,0.0,43,0.00,,---,0.00,VWS V14.01,2013-01-21 08:13:00,
2013-01-21 03:18:00,22.8,3.7,30.01,SSE,161,0.0,0.0,43,0.00,,---,0.00,VWS V14.01,2013-01-21 08:18:00,
2013-01-21 03:23:00,22.8,3.7,30.01,SSE,163,0.0,0.0,43,0.00,,---,0.00,VWS V14.01,2013-01-21 08:23:00,
2013-01-21 03:28:00,22.8,3.7,30.01,South,175,3.1,3.1,43,0.00,,---,0.00,VWS V14.01,2013-01-21 08:28:00,
2013-01-21 03:33:00,22.8,3.7,30.01,West,262,3.6,3.6,43,0.00,,---,0.00,VWS V14.01,2013-01-21 08:33:00,
2013-01-21 03:38:00,22.8,2.1,30.01,WSW,250,3.6,4.0,40,0.00,,---,0.00,VWS V14.01,2013-01-21 08:38:00,
2013-01-21 03:43:00,22.8,2.1,30.01,WSW,250,0.0,2.7,40,0.00,,---,0.00,VWS V14.01,2013-01-21 08:43:00,
2013-01-21 03:48:00,22.8,2.1,30.01,WSW,248,3.1,4.0,40,0.00,,---,0.00,VWS V14.01,2013-01-21 08:48:00,
2013-01-21 03:53:00,22.8,2.1,29.98,SW,225,3.1,3.1,40,0.00,,---,0.00,VWS V14.01,2013-01-21 08:53:00,
2013-01-21 03:58:00,22.8,2.1,29.98,SW,226,0.0,0.0,40,0.00,,---,0.00,VWS V14.01,2013-01-21 08:58:00,
2013-01-21 04:03:00,22.8,2.1,29.98,WSW,246,0.0,0.0,40,0.00,,---,0.00,VWS V14.01,2013-01-21 09:03:00,
2013-01-21 04:08:00,22.8,2.1,29.98,WSW,244,3.6,3.6,40,0.00,,---,0.00,VWS V14.01,2013-01-21 09:08:00,
2013-01-21 04:13:00,22.8,2.1,29.98,WSW,237,4.5,4.5,40,0.00,,---,0.00,VWS V14.01,2013-01-21 09:13:00,
2013-01-21 04:18:00,22.8,2.1,29.98,WSW,250,0.0,0.0,40,0.00,,---,0.00,VWS V14.01,2013-01-21 09:18:00,
2013-01-21 04:23:00,22.8,2.1,29.98,WSW,258,0.0,0.0,40,0.00,,---,0.00,VWS V14.01,2013-01-21 09:23:00,
2013-01-21 04:28:00,23.0,3.8,29.98,WSW,258,0.0,0.0,43,0.00,,---,0.00,VWS V14.01,2013-01-21 09:28:00,
2013-01-21 04:33:00,23.0,3.8,29.98,WSW,257,0.0,0.0,43,0.00,,---,0.00,VWS V14.01,2013-01-21 09:33:00,
2013-01-21 04:38:00,23.0,3.8,29.98,WSW,257,0.0,0.0,43,0.00,,---,0.00,VWS V14.01,2013-01-21 09:38:00,
2013-01-21 04:43:00,22.8,3.7,29.98,WSW,257,0.0,0.0,43,0.00,,---,0.00,VWS V14.01,2013-01-21 09:43:00,
2013-01-21 04:48:00,22.6,3.5,29.98,WSW,257,0.0,0.0,43,0.00,,---,0.00,VWS V14.01,2013-01-21 09:48:00,
2013-01-21 04:53:00,22.6,2.0,29.98,WSW,257,3.1,3.1,40,0.00,,---,0.00,VWS V14.01,2013-01-21 09:53:00,
2013-01-21 04:58:00,22.5,3.4,29.98,West,260,0.0,0.0,43,0.00,,---,0.00,VWS V14.01,2013-01-21 09:58:00,
2013-01-21 05:03:00,22.5,3.4,29.98,West,259,0.0,0.0,43,0.00,,---,0.00,VWS V14.01,2013-01-21 10:03:00,
2013-01-21 05:08:00,22.5,3.4,29.98,West,260,0.0,0.0,43,0.00,,---,0.00,VWS V14.01,2013-01-21 10:08:00,
2013-01-21 05:13:00,22.3,3.2,29.98,West,260,0.0,0.0,43,0.00,,---,0.00,VWS V14.01,2013-01-21 10:13:00,
2013-01-21 05:18:00,22.3,3.2,29.98,West,259,0.0,0.0,43,0.00,,---,0.00,VWS V14.01,2013-01-21 10:18:00,
2013-01-21 05:23:00,22.1,3.0,29.98,West,260,0.0,0.0,43,0.00,,---,0.00,VWS V14.01,2013-01-21 10:23:00,
2013-01-21 05:28:00,22.1,3.0,29.98,WSW,257,2.7,3.6,43,0.00,,---,0.00,VWS V14.01,2013-01-21 10:28:00,
2013-01-21 05:33:00,22.1,3.0,29.98,SW,233,4.0,4.0,43,0.00,,---,0.00,VWS V14.01,2013-01-21 10:33:00,
2013-01-21 05:38:00,22.1,3.0,29.98,SW,229,0.0,0.0,43,0.00,,---,0.00,VWS V14.01,2013-01-21 10:38:00,
2013-01-21 05:43:00,22.1,3.0,29.98,WSW,249,4.9,5.8,43,0.00,,---,0.00,VWS V14.01,2013-01-21 10:43:00,
2013-01-21 05:48:00,22.1,3.0,29.98,WSW,238,4.0,4.0,43,0.00,,---,0.00,VWS V14.01,2013-01-21 10:48:00,
2013-01-21 05:53:00,22.1,3.0,29.98,SW,221,4.5,5.8,43,0.00,,---,0.00,VWS V14.01,2013-01-21 10:53:00,
2013-01-21 05:58:00,22.1,3.0,29.98,WSW,248,3.1,7.4,43,0.00,,---,0.00,VWS V14.01,2013-01-21 10:58:00,
2013-01-21 06:03:00,22.1,3.0,29.98,SSW,205,3.1,4.0,43,0.00,,---,0.00,VWS V14.01,2013-01-21 11:03:00,
2013-01-21 06:08:00,22.3,3.2,29.98,WSW,253,0.0,3.6,43,0.00,,---,0.00,VWS V14.01,2013-01-21 11:08:00,
2013-01-21 06:13:00,22.3,3.2,29.98,West,271,5.8,5.8,43,0.00,,---,0.00,VWS V14.01,2013-01-21 11:13:00,
2013-01-21 06:18:00,22.3,3.2,29.98,WSW,249,4.5,5.4,43,0.00,,---,0.00,VWS V14.01,2013-01-21 11:18:00,
2013-01-21 06:23:00,22.3,3.2,29.98,West,259,4.0,4.0,43,0.00,,---,0.00,VWS V14.01,2013-01-21 11:23:00,
2013-01-21 06:28:00,22.3,3.2,29.98,WSW,245,2.7,2.7,43,0.00,,---,0.00,VWS V14.01,2013-01-21 11:28:00,
2013-01-21 06:33:00,22.3,3.2,29.98,WSW,255,4.9,4.9,43,0.00,,---,0.00,VWS V14.01,2013-01-21 11:33:00,
2013-01-21 06:38:00,22.3,3.2,29.98,West,259,0.0,0.0,43,0.00,,---,0.00,VWS V14.01,2013-01-21 11:38:00,
2013-01-21 06:43:00,22.5,3.4,29.98,WSW,246,0.0,0.0,43,0.00,,---,0.00,VWS V14.01,2013-01-21 11:43:00,
2013-01-21 06:48:00,22.5,3.4,29.98,West,278,4.5,4.5,43,0.00,,---,0.00,VWS V14.01,2013-01-21 11:48:00,
2013-01-21 06:53:00,22.5,3.4,29.98,West,267,3.6,4.0,43,0.00,,---,0.00,VWS V14.01,2013-01-21 11:53:00,
2013-01-21 06:58:00,22.5,3.4,29.98,WSW,250,0.0,2.7,43,0.00,,---,0.00,VWS V14.01,2013-01-21 11:58:00,
2013-01-21 07:03:00,22.5,3.4,29.98,SW,230,3.6,3.6,43,0.00,,---,0.00,VWS V14.01,2013-01-21 12:03:00,
2013-01-21 07:08:00,22.5,3.4,29.98,West,268,0.0,0.0,43,0.00,,---,0.00,VWS V14.01,2013-01-21 12:08:00,
2013-01-21 07:13:00,22.5,3.4,29.98,West,259,0.0,0.0,43,0.00,,---,0.00,VWS V14.01,2013-01-21 12:13:00,
2013-01-21 07:18:00,22.5,3.4,29.98,WSW,249,0.0,0.0,43,0.00,,---,0.00,VWS V14.01,2013-01-21 12:18:00,
2013-01-21 07:23:00,22.3,3.2,29.95,WSW,252,0.0,0.0,43,0.00,,---,0.00,VWS V14.01,2013-01-21 12:23:00,
2013-01-21 07:28:00,22.3,3.2,29.95,WSW,244,4.5,4.5,43,0.00,,---,0.00,VWS V14.01,2013-01-21 12:28:00,
2013-01-21 07:33:00,22.3,3.2,29.95,WSW,253,4.0,4.0,43,0.00,,---,0.00,VWS V14.01,2013-01-21 12:33:00,
2013-01-21 07:38:00,22.3,3.2,29.95,WSW,239,3.1,3.1,43,0.00,,---,0.00,VWS V14.01,2013-01-21 12:38:00,
2013-01-21 07:43:00,22.5,3.4,29.95,WSW,254,3.1,3.1,43,0.00,,---,0.00,VWS V14.01,2013-01-21 12:43:00,
2013-01-21 07:48:00,22.5,3.4,29.95,WSW,252,3.6,3.6,43,0.00,,---,0.00,VWS V14.01,2013-01-21 12:48:00,
2013-01-21 07:53:00,22.5,3.4,29.95,West,260,4.9,4.9,43,0.00,,---,0.00,VWS V14.01,2013-01-21 12:53:00,
2013-01-21 07:58:00,22.5,3.4,29.95,West,262,3.1,3.1,43,0.00,,---,0.00,VWS V14.01,2013-01-21 12:58:00,
2013-01-21 08:03:00,22.5,3.4,29.95,WSW,251,4.0,4.0,43,0.00,,---,0.00,VWS V14.01,2013-01-21 13:03:00,
2013-01-21 08:08:00,22.6,3.5,29.95,WSW,247,4.5,4.5,43,0.00,,---,0.00,VWS V14.01,2013-01-21 13:08:00,
2013-01-21 08:13:00,22.8,3.7,29.95,WSW,247,0.0,0.0,43,0.00,,---,0.00,VWS V14.01,2013-01-21 13:13:00,
2013-01-21 08:18:00,23.0,3.8,29.95,WSW,255,0.0,0.0,43,0.00,,---,0.00,VWS V14.01,2013-01-21 13:18:00,
2013-01-21 08:23:00,23.0,3.8,29.95,SW,229,5.8,5.8,43,0.00,,---,0.00,VWS V14.01,2013-01-21 13:23:00,
2013-01-21 08:28:00,23.0,3.8,29.95,WSW,244,6.3,6.3,43,0.00,,---,0.00,VWS V14.01,2013-01-21 13:28:00,
2013-01-21 08:33:00,23.2,4.0,29.95,West,260,4.9,4.9,43,0.00,,---,0.00,VWS V14.01,2013-01-21 13:33:00,
2013-01-21 08:38:00,23.4,4.2,29.95,West,270,6.3,6.3,43,0.00,,---,0.00,VWS V14.01,2013-01-21 13:38:00,
2013-01-21 08:43:00,23.5,4.3,29.95,WSW,246,3.6,3.6,43,0.00,,---,0.00,VWS V14.01,2013-01-21 13:43:00,
2013-01-21 08:48:00,23.5,4.3,29.95,West,266,4.0,4.0,43,0.00,,---,0.00,VWS V14.01,2013-01-21 13:48:00,
2013-01-21 08:53:00,23.7,4.5,29.95,WSW,258,4.0,4.0,43,0.00,,---,0.00,VWS V14.01,2013-01-21 13:53:00,
2013-01-21 08:58:00,23.9,4.7,29.95,West,262,4.5,4.5,43,0.00,,---,0.00,VWS V14.01,2013-01-21 13:58:00,
2013-01-21 09:03:00,23.9,4.7,29.95,West,259,3.1,3.1,43,0.00,,---,0.00,VWS V14.01,2013-01-21 14:03:00,
2013-01-21 09:08:00,23.9,4.2,29.95,WSW,257,5.8,5.8,42,0.00,,---,0.00,VWS V14.01,2013-01-21 14:08:00,
2013-01-21 09:13:00,23.9,4.2,29.95,WSW,250,4.5,4.5,42,0.00,,---,0.00,VWS V14.01,2013-01-21 14:13:00,
2013-01-21 09:18:00,23.9,4.2,29.95,WSW,247,6.9,7.8,42,0.00,,---,0.00,VWS V14.01,2013-01-21 14:18:00,
2013-01-21 09:23:00,23.9,4.7,29.95,SW,236,8.3,9.2,43,0.00,,---,0.00,VWS V14.01,2013-01-21 14:23:00,
2013-01-21 09:28:00,23.9,4.7,29.95,SW,229,4.5,4.5,43,0.00,,---,0.00,VWS V14.01,2013-01-21 14:28:00,
2013-01-21 09:33:00,23.7,4.5,29.95,SW,227,6.9,8.3,43,0.00,,---,0.00,VWS V14.01,2013-01-21 14:33:00,
2013-01-21 09:38:00,23.7,4.5,29.95,West,263,6.3,6.3,43,0.00,,---,0.00,VWS V14.01,2013-01-21 14:38:00,
2013-01-21 09:43:00,23.9,4.7,29.95,SW,235,6.3,6.7,43,0.00,,---,0.00,VWS V14.01,2013-01-21 14:43:00,
2013-01-21 09:48:00,23.9,4.7,29.95,West,264,6.3,6.3,43,0.00,,---,0.00,VWS V14.01,2013-01-21 14:48:00,
2013-01-21 09:53:00,23.9,4.7,29.95,SW,216,5.4,5.4,43,0.00,,---,0.00,VWS V14.01,2013-01-21 14:53:00,
2013-01-21 09:58:00,23.9,4.7,29.95,WSW,239,5.4,6.3,43,0.00,,---,0.00,VWS V14.01,2013-01-21 14:58:00,
2013-01-21 10:03:00,23.9,4.7,29.95,WNW,287,5.8,6.3,43,0.00,,---,0.00,VWS V14.01,2013-01-21 15:03:00,
2013-01-21 10:08:00,23.9,4.2,29.95,WSW,247,5.4,5.4,42,0.00,,---,0.00,VWS V14.01,2013-01-21 15:08:00,
2013-01-21 10:13:00,23.9,4.2,29.95,WSW,240,6.7,6.7,42,0.00,,---,0.00,VWS V14.01,2013-01-21 15:13:00,
2013-01-21 10:18:00,23.9,4.2,29.95,West,260,5.8,5.8,42,0.00,,---,0.00,VWS V14.01,2013-01-21 15:18:00,
2013-01-21 10:23:00,24.1,4.3,29.95,West,260,0.0,4.5,42,0.00,,---,0.00,VWS V14.01,2013-01-21 15:23:00,
2013-01-21 10:28:00,24.3,4.5,29.95,West,268,5.4,6.3,42,0.00,,---,0.00,VWS V14.01,2013-01-21 15:28:00,
2013-01-21 10:33:00,24.4,4.7,29.95,West,276,4.9,6.3,42,0.00,,---,0.00,VWS V14.01,2013-01-21 15:33:00,
2013-01-21 10:38:00,24.6,4.8,29.95,WSW,250,4.9,4.9,42,0.00,,---,0.00,VWS V14.01,2013-01-21 15:38:00,
2013-01-21 10:43:00,24.6,4.8,29.95,WSW,255,3.1,3.6,42,0.00,,---,0.00,VWS V14.01,2013-01-21 15:43:00,
2013-01-21 10:48:00,24.8,5.0,29.95,SW,217,4.0,5.8,42,0.00,,---,0.00,VWS V14.01,2013-01-21 15:48:00,
2013-01-21 10:53:00,25.0,5.1,29.92,West,278,6.3,6.3,42,0.00,,---,0.00,VWS V14.01,2013-01-21 15:53:00,
2013-01-21 10:58:00,25.2,5.3,29.92,NW,307,4.0,4.9,42,0.00,,---,0.00,VWS V14.01,2013-01-21 15:58:00,
2013-01-21 11:03:00,25.3,5.5,29.92,WSW,241,6.7,7.8,42,0.00,,---,0.00,VWS V14.01,2013-01-21 16:03:00,
2013-01-21 11:08:00,25.2,5.3,29.92,WSW,253,7.4,7.4,42,0.00,,---,0.00,VWS V14.01,2013-01-21 16:08:00,
2013-01-21 11:13:00,25.2,5.3,29.92,WSW,239,5.4,6.7,42,0.00,,---,0.00,VWS V14.01,2013-01-21 16:13:00,
2013-01-21 11:18:00,25.2,5.3,29.92,SW,230,5.4,5.4,42,0.00,,---,0.00,VWS V14.01,2013-01-21 16:18:00,
2013-01-21 11:23:00,25.2,5.3,29.92,WSW,258,3.6,4.5,42,0.00,,---,0.00,VWS V14.01,2013-01-21 16:23:00,
2013-01-21 11:28:00,25.2,5.3,29.92,WSW,238,0.0,0.0,42,0.00,,---,0.00,VWS V14.01,2013-01-21 16:28:00,
2013-01-21 11:33:00,25.3,7.0,29.92,WNW,301,4.9,4.9,45,0.00,,---,0.00,VWS V14.01,2013-01-21 16:33:00,
2013-01-21 11:38:00,25.5,7.2,29.89,WNW,282,4.5,4.9,45,0.00,,---,0.00,VWS V14.01,2013-01-21 16:38:00,
2013-01-21 11:43:00,25.5,7.2,29.89,West,259,3.6,4.5,45,0.00,,---,0.00,VWS V14.01,2013-01-21 16:43:00,
2013-01-21 11:48:00,25.5,7.2,29.89,West,274,4.5,4.5,45,0.00,,---,0.00,VWS V14.01,2013-01-21 16:48:00,
2013-01-21 11:53:00,25.5,7.2,29.89,WSW,241,4.9,4.9,45,0.00,,---,0.00,VWS V14.01,2013-01-21 16:53:00,
2013-01-21 11:58:00,25.5,7.2,29.89,WSW,258,4.5,4.5,45,0.00,,---,0.00,VWS V14.01,2013-01-21 16:58:00,
2013-01-21 12:03:00,25.5,7.2,29.89,WSW,256,4.0,4.0,45,0.00,,---,0.00,VWS V14.01,2013-01-21 17:03:00,
2013-01-21 12:08:00,25.5,7.2,29.89,SW,235,0.0,0.0,45,0.00,,---,0.00,VWS V14.01,2013-01-21 17:08:00,
2013-01-21 12:13:00,25.5,7.2,29.89,SSW,203,0.0,0.0,45,0.00,,---,0.00,VWS V14.01,2013-01-21 17:13:00,
2013-01-21 12:18:00,25.5,7.2,29.89,SSW,205,5.8,5.8,45,0.00,,---,0.00,VWS V14.01,2013-01-21 17:18:00,
2013-01-21 12:23:00,25.5,7.2,29.86,West,260,3.6,3.6,45,0.00,,---,0.00,VWS V14.01,2013-01-21 17:23:00,
2013-01-21 12:28:00,25.3,7.0,29.86,SSW,198,0.0,0.0,45,0.00,,---,0.00,VWS V14.01,2013-01-21 17:28:00,
2013-01-21 12:33:00,25.5,8.1,29.86,SSW,204,3.1,3.1,47,0.00,,---,0.00,VWS V14.01,2013-01-21 17:33:00,
2013-01-21 12:38:00,25.3,7.9,29.86,SW,227,4.0,4.0,47,0.00,,---,0.00,VWS V14.01,2013-01-21 17:38:00,
2013-01-21 12:43:00,25.2,7.8,29.86,WSW,247,3.1,3.6,47,0.00,,---,0.00,VWS V14.01,2013-01-21 17:43:00,
2013-01-21 12:48:00,25.2,7.8,29.86,SE,137,0.0,0.0,47,0.00,,---,0.00,VWS V14.01,2013-01-21 17:48:00,
2013-01-21 12:53:00,25.5,9.5,29.86,SE,134,0.0,0.0,50,0.00,,---,0.00,VWS V14.01,2013-01-21 17:53:00,
2013-01-21 12:58:00,25.5,10.4,29.86,SSE,157,2.7,2.7,52,0.00,,---,0.00,VWS V14.01,2013-01-21 17:58:00,
2013-01-21 13:03:00,25.5,9.5,29.86,SW,221,0.0,0.0,50,0.00,,---,0.00,VWS V14.01,2013-01-21 18:03:00,
2013-01-21 13:08:00,25.5,11.6,29.83,SE,141,0.0,0.0,55,0.00,,---,0.00,VWS V14.01,2013-01-21 18:08:00,
2013-01-21 13:13:00,25.5,10.4,29.83,SE,130,3.1,4.0,52,0.00,,---,0.00,VWS V14.01,2013-01-21 18:13:00,
2013-01-21 13:18:00,25.5,11.6,29.83,SE,138,0.0,0.0,55,0.00,,---,0.00,VWS V14.01,2013-01-21 18:18:00,
2013-01-21 13:23:00,25.5,11.6,29.83,SW,225,4.9,5.4,55,0.00,,---,0.00,VWS V14.01,2013-01-21 18:23:00,
2013-01-21 13:28:00,25.3,11.9,29.83,WSW,238,3.6,3.6,56,0.00,,---,0.00,VWS V14.01,2013-01-21 18:28:00,
2013-01-21 13:33:00,25.2,11.7,29.83,SW,228,0.0,0.0,56,0.00,,---,0.00,VWS V14.01,2013-01-21 18:33:00,
2013-01-21 13:38:00,25.2,11.7,29.83,South,169,0.0,2.7,56,0.00,,---,0.00,VWS V14.01,2013-01-21 18:38:00,
2013-01-21 13:43:00,25.2,12.1,29.83,SSW,210,4.0,4.5,57,0.00,,---,0.00,VWS V14.01,2013-01-21 18:43:00,
2013-01-21 13:48:00,25.0,11.9,29.83,South,183,4.0,4.9,57,0.00,,---,0.00,VWS V14.01,2013-01-21 18:48:00,
2013-01-21 13:53:00,25.0,12.3,29.83,South,190,0.0,0.0,58,0.00,,---,0.00,VWS V14.01,2013-01-21 18:53:00,
2013-01-21 13:58:00,25.0,13.1,29.83,SW,235,2.7,3.6,60,0.00,,---,0.00,VWS V14.01,2013-01-21 18:58:00,
2013-01-21 14:03:00,25.0,13.4,29.83,SSW,208,3.6,4.0,61,0.00,,---,0.00,VWS V14.01,2013-01-21 19:03:00,
2013-01-21 14:08:00,25.0,14.2,29.83,South,185,3.6,3.6,63,0.00,,---,0.00,VWS V14.01,2013-01-21 19:08:00,
2013-01-21 14:13:00,24.8,14.7,29.83,SSW,199,3.1,3.6,65,0.00,,---,0.00,VWS V14.01,2013-01-21 19:13:00,
2013-01-21 14:18:00,24.6,14.6,29.83,SW,218,4.9,4.9,65,0.00,,---,0.00,VWS V14.01,2013-01-21 19:18:00,
2013-01-21 14:23:00,24.6,14.6,29.83,SSW,213,4.0,4.5,65,0.00,,---,0.00,VWS V14.01,2013-01-21 19:23:00,
2013-01-21 14:28:00,24.4,14.7,29.83,SSW,209,4.5,4.5,66,0.00,,---,0.00,VWS V14.01,2013-01-21 19:28:00,
2013-01-21 14:33:00,24.3,14.9,29.83,WSW,237,0.0,0.0,67,0.00,,---,0.00,VWS V14.01,2013-01-21 19:33:00,
2013-01-21 14:38:00,24.3,14.9,29.80,WSW,237,0.0,0.0,67,0.00,,---,0.00,VWS V14.01,2013-01-21 19:38:00,
2013-01-21 14:43:00,24.4,15.4,29.80,WSW,237,0.0,0.0,68,0.00,,---,0.00,VWS V14.01,2013-01-21 19:43:00,
2013-01-21 14:48:00,24.4,15.4,29.80,WSW,237,0.0,0.0,68,0.00,,---,0.00,VWS V14.01,2013-01-21 19:48:00,
2013-01-21 14:53:00,24.6,15.9,29.80,WSW,237,0.0,0.0,69,0.00,,---,0.00,VWS V14.01,2013-01-21 19:53:00,
2013-01-21 14:58:00,24.4,15.4,29.80,ESE,121,0.0,0.0,68,0.00,,---,0.00,VWS V14.01,2013-01-21 19:58:00,
2013-01-21 15:03:00,24.4,15.7,29.80,SE,135,2.7,4.0,69,0.00,,---,0.00,VWS V14.01,2013-01-21 20:03:00,
2013-01-21 15:08:00,24.4,15.7,29.80,ESE,118,0.0,0.0,69,0.00,,---,0.00,VWS V14.01,2013-01-21 20:08:00,
2013-01-21 15:13:00,24.6,15.9,29.80,SSE,148,0.0,0.0,69,0.00,,---,0.00,VWS V14.01,2013-01-21 20:13:00,
2013-01-21 15:18:00,24.6,15.9,29.80,SW,230,2.7,3.6,69,0.00,,---,0.00,VWS V14.01,2013-01-21 20:18:00,
2013-01-21 15:23:00,24.4,15.7,29.80,WSW,252,4.5,4.5,69,0.00,,---,0.00,VWS V14.01,2013-01-21 20:23:00,
2013-01-21 15:28:00,24.4,15.7,29.80,SE,140,0.0,0.0,69,0.00,,---,0.00,VWS V14.01,2013-01-21 20:28:00,
2013-01-21 15:33:00,24.3,15.9,29.80,East,80,3.6,3.6,70,0.00,,---,0.00,VWS V14.01,2013-01-21 20:33:00,
2013-01-21 15:38:00,24.3,15.6,29.80,WSW,248,4.9,4.9,69,0.00,,---,0.00,VWS V14.01,2013-01-21 20:38:00,
2013-01-21 15:43:00,24.3,15.9,29.80,SSE,162,0.0,0.0,70,0.00,,---,0.00,VWS V14.01,2013-01-21 20:43:00,
2013-01-21 15:48:00,24.4,16.4,29.80,SW,235,3.6,3.6,71,0.00,,---,0.00,VWS V14.01,2013-01-21 20:48:00,
2013-01-21 15:53:00,24.3,16.5,29.80,SW,232,0.0,0.0,72,0.00,,---,0.00,VWS V14.01,2013-01-21 20:53:00,
2013-01-21 15:58:00,24.3,16.2,29.80,SW,232,0.0,0.0,71,0.00,,---,0.00,VWS V14.01,2013-01-21 20:58:00,
2013-01-21 16:03:00,24.4,16.4,29.80,SW,232,0.0,0.0,71,0.00,,---,0.00,VWS V14.01,2013-01-21 21:03:00,
2013-01-21 16:08:00,24.3,16.2,29.80,SW,232,0.0,0.0,71,0.00,,---,0.00,VWS V14.01,2013-01-21 21:08:00,
2013-01-21 16:13:00,24.6,17.2,29.80,NW,322,0.0,0.0,73,0.00,,---,0.00,VWS V14.01,2013-01-21 21:13:00,
2013-01-21 16:18:00,24.6,17.8,29.80,NW,308,3.6,3.6,75,0.04,,---,0.04,VWS V14.01,2013-01-21 21:18:00,
2013-01-21 16:23:00,24.6,17.8,29.83,WNW,303,0.0,0.0,75,0.04,,---,0.04,VWS V14.01,2013-01-21 21:23:00,
2013-01-21 16:28:00,24.6,18.1,29.83,West,281,0.0,0.0,76,0.04,,---,0.04,VWS V14.01,2013-01-21 21:28:00,
2013-01-21 16:33:00,24.6,17.8,29.83,WSW,243,0.0,0.0,75,0.04,,---,0.04,VWS V14.01,2013-01-21 21:33:00,
2013-01-21 16:38:00,24.6,17.8,29.83,WSW,243,0.0,0.0,75,0.04,,---,0.04,VWS V14.01,2013-01-21 21:38:00,
2013-01-21 16:43:00,24.4,17.7,29.83,WSW,243,0.0,0.0,75,0.04,,---,0.04,VWS V14.01,2013-01-21 21:43:00,
2013-01-21 16:48:00,24.4,17.4,29.83,SW,236,0.0,0.0,74,0.04,,---,0.04,VWS V14.01,2013-01-21 21:48:00,
2013-01-21 16:53:00,24.4,17.4,29.80,SW,236,0.0,0.0,74,0.04,,---,0.04,VWS V14.01,2013-01-21 21:53:00,
2013-01-21 16:58:00,24.4,17.7,29.80,SW,236,0.0,0.0,75,0.04,,---,0.04,VWS V14.01,2013-01-21 21:58:00,
2013-01-21 17:03:00,24.3,17.5,29.80,SW,236,0.0,0.0,75,0.04,,---,0.04,VWS V14.01,2013-01-21 22:03:00,
2013-01-21 17:08:00,24.1,17.3,29.83,SW,236,0.0,0.0,75,0.04,,---,0.04,VWS V14.01,2013-01-21 22:08:00,
2013-01-21 17:13:00,23.9,17.1,29.83,SW,236,0.0,0.0,75,0.04,,---,0.04,VWS V14.01,2013-01-21 22:13:00,
2013-01-21 17:18:00,23.9,17.5,29.83,SW,236,0.0,0.0,76,0.04,,---,0.04,VWS V14.01,2013-01-21 22:18:00,
2013-01-21 17:23:00,23.9,17.5,29.83,WSW,240,0.0,0.0,76,0.00,,---,0.04,VWS V14.01,2013-01-21 22:23:00,
2013-01-21 17:28:00,23.9,17.5,29.83,WSW,240,0.0,0.0,76,0.00,,---,0.04,VWS V14.01,2013-01-21 22:28:00,
2013-01-21 17:33:00,23.9,17.5,29.83,WSW,240,0.0,0.0,76,0.00,,---,0.04,VWS V14.01,2013-01-21 22:33:00,
2013-01-21 17:38:00,23.9,17.5,29.83,WSW,240,0.0,0.0,76,0.00,,---,0.04,VWS V14.01,2013-01-21 22:38:00,
2013-01-21 17:43:00,23.9,17.5,29.83,WSW,240,0.0,0.0,76,0.00,,---,0.04,VWS V14.01,2013-01-21 22:43:00,
2013-01-21 17:48:00,23.9,17.8,29.83,West,259,11.2,11.2,77,0.00,,---,0.04,VWS V14.01,2013-01-21 22:48:00,
2013-01-21 17:53:00,23.5,17.1,29.83,NNW,331,5.8,5.8,76,0.00,,---,0.04,VWS V14.01,2013-01-21 22:53:00,
2013-01-21 17:58:00,23.2,16.8,29.83,West,276,7.8,7.8,76,0.00,,---,0.04,VWS V14.01,2013-01-21 22:58:00,
2013-01-21 18:03:00,22.8,16.4,29.83,WNW,291,5.8,6.9,76,0.00,,---,0.04,VWS V14.01,2013-01-21 23:03:00,
2013-01-21 18:08:00,22.3,15.6,29.86,WNW,285,5.4,5.4,75,0.00,,---,0.04,VWS V14.01,2013-01-21 23:08:00,
2013-01-21 18:13:00,22.1,15.1,29.86,NNW,335,4.9,6.9,74,0.00,,---,0.04,VWS V14.01,2013-01-21 23:13:00,
2013-01-21 18:18:00,22.1,14.8,29.86,West,270,9.2,9.2,73,0.00,,---,0.04,VWS V14.01,2013-01-21 23:18:00,
2013-01-21 18:23:00,22.1,14.5,29.86,West,281,10.1,10.1,72,0.00,,---,0.04,VWS V14.01,2013-01-21 23:23:00,
2013-01-21 18:28:00,22.1,14.1,29.86,West,269,8.7,10.5,71,0.00,,---,0.04,VWS V14.01,2013-01-21 23:28:00,
2013-01-21 18:33:00,22.1,14.1,29.86,SW,221,5.4,8.7,71,0.00,,---,0.04,VWS V14.01,2013-01-21 23:33:00,
2013-01-21 18:38:00,21.9,13.6,29.86,West,281,7.4,8.7,70,0.00,,---,0.04,VWS V14.01,2013-01-21 23:38:00,
2013-01-21 18:43:00,21.9,13.6,29.86,West,265,3.1,4.0,70,0.00,,---,0.04,VWS V14.01,2013-01-21 23:43:00,
2013-01-21 18:48:00,21.7,13.1,29.86,West,273,4.5,4.5,69,0.00,,---,0.04,VWS V14.01,2013-01-21 23:48:00,
2013-01-21 18:53:00,21.6,12.6,29.86,West,280,6.3,6.9,68,0.00,,---,0.04,VWS V14.01,2013-01-21 23:53:00,
2013-01-21 18:58:00,21.4,12.5,29.86,WSW,254,4.9,4.9,68,0.00,,---,0.04,VWS V14.01,2013-01-21 23:58:00,
2013-01-21 19:03:00,21.4,12.1,29.86,West,263,5.8,5.8,67,0.00,,---,0.04,VWS V14.01,2013-01-22 00:03:00,
2013-01-21 19:08:00,21.2,12.0,29.86,NW,309,5.8,5.8,67,0.00,,---,0.04,VWS V14.01,2013-01-22 00:08:00,
2013-01-21 19:13:00,21.0,11.8,29.86,WSW,252,3.6,4.5,67,0.00,,---,0.04,VWS V14.01,2013-01-22 00:13:00,
2013-01-21 19:18:00,20.7,11.1,29.86,SW,232,6.7,7.8,66,0.00,,---,0.04,VWS V14.01,2013-01-22 00:18:00,
2013-01-21 19:23:00,20.7,11.1,29.86,WSW,258,3.1,3.1,66,0.00,,---,0.04,VWS V14.01,2013-01-22 00:23:00,
2013-01-21 19:28:00,20.7,11.1,29.86,West,261,3.6,3.6,66,0.00,,---,0.04,VWS V14.01,2013-01-22 00:28:00,
2013-01-21 19:33:00,20.5,10.9,29.86,West,259,5.4,5.8,66,0.00,,---,0.04,VWS V14.01,2013-01-22 00:33:00,
2013-01-21 19:38:00,20.3,10.8,29.86,WSW,258,4.0,4.0,66,0.00,,---,0.04,VWS V14.01,2013-01-22 00:38:00,
2013-01-21 19:43:00,20.1,10.6,29.86,WSW,255,5.8,5.8,66,0.00,,---,0.04,VWS V14.01,2013-01-22 00:43:00,
2013-01-21 19:48:00,19.9,10.4,29.86,West,269,8.7,9.6,66,0.00,,---,0.04,VWS V14.01,2013-01-22 00:48:00,
2013-01-21 19:53:00,19.9,10.4,29.86,West,276,8.3,8.3,66,0.00,,---,0.04,VWS V14.01,2013-01-22 00:53:00,
2013-01-21 19:58:00,20.1,10.6,29.86,WSW,258,4.9,4.9,66,0.00,,---,0.04,VWS V14.01,2013-01-22 00:58:00,
2013-01-21 20:03:00,19.9,10.1,29.86,West,265,5.8,9.2,65,0.00,,---,0.04,VWS V14.01,2013-01-22 01:03:00,
2013-01-21 20:08:00,19.9,10.1,29.86,WSW,258,6.3,7.4,65,0.00,,---,0.04,VWS V14.01,2013-01-22 01:08:00,
2013-01-21 20:13:00,19.9,10.1,29.86,WNW,284,4.5,7.4,65,0.00,,---,0.04,VWS V14.01,2013-01-22 01:13:00,
2013-01-21 20:18:00,20.1,10.6,29.86,WNW,282,4.0,6.9,66,0.00,,---,0.04,VWS V14.01,2013-01-22 01:18:00,
2013-01-21 20:23:00,20.1,10.3,29.86,West,279,3.6,4.9,65,0.00,,---,0.04,VWS V14.01,2013-01-22 01:23:00,
2013-01-21 20:28:00,20.1,10.3,29.86,West,274,3.1,6.7,65,0.00,,---,0.04,VWS V14.01,2013-01-22 01:28:00,
2013-01-21 20:33:00,20.3,10.4,29.86,WNW,292,3.1,5.8,65,0.00,,---,0.04,VWS V14.01,2013-01-22 01:33:00,
2013-01-21 20:38:00,20.3,10.1,29.86,West,276,5.4,6.7,64,0.00,,---,0.04,VWS V14.01,2013-01-22 01:38:00,
2013-01-21 20:43:00,20.3,10.1,29.86,West,280,5.8,6.7,64,0.00,,---,0.04,VWS V14.01,2013-01-22 01:43:00,
2013-01-21 20:48:00,20.3,9.7,29.86,West,276,7.8,13.0,63,0.00,,---,0.04,VWS V14.01,2013-01-22 01:48:00,
2013-01-21 20:52:00,20.3,10.8,29.83,WSW,240,6.3,6.9,66,0.00,,---,0.04,VWS V14.01,2013-01-22 01:52:00,
2013-01-21 20:58:00,20.1,10.6,29.83,WNW,286,11.2,11.2,66,0.00,,---,0.04,VWS V14.01,2013-01-22 01:58:00,
2013-01-21 21:02:00,20.1,10.6,29.83,NW,312,8.7,10.1,66,0.00,,---,0.04,VWS V14.01,2013-01-22 02:02:00,
2013-01-21 21:07:00,20.1,10.3,29.86,WNW,291,5.4,7.4,65,0.00,,---,0.04,VWS V14.01,2013-01-22 02:07:00,
2013-01-21 21:12:00,19.9,10.1,29.86,West,272,8.3,9.6,65,0.00,,---,0.04,VWS V14.01,2013-01-22 02:12:00,
2013-01-21 21:17:00,19.9,9.7,29.86,SW,233,9.6,12.1,64,0.00,,---,0.04,VWS V14.01,2013-01-22 02:17:00,
2013-01-21 21:22:00,19.9,9.4,29.86,NW,320,4.0,9.2,63,0.00,,---,0.04,VWS V14.01,2013-01-22 02:22:00,
2013-01-21 21:27:00,19.8,8.9,29.86,West,260,3.1,5.8,62,0.00,,---,0.04,VWS V14.01,2013-01-22 02:27:00,
2013-01-21 21:32:00,19.6,8.3,29.86,WNW,283,0.0,5.4,61,0.00,,---,0.04,VWS V14.01,2013-01-22 02:32:00,
2013-01-21 21:37:00,19.2,7.6,29.83,West,266,5.8,6.9,60,0.00,,---,0.04,VWS V14.01,2013-01-22 02:37:00,
2013-01-21 21:42:00,19.0,7.4,29.83,West,267,2.7,5.4,60,0.00,,---,0.04,VWS V14.01,2013-01-22 02:42:00,
2013-01-21 21:47:00,18.7,7.1,29.83,West,279,2.7,4.9,60,0.00,,---,0.04,VWS V14.01,2013-01-22 02:47:00,
2013-01-21 21:52:00,18.5,6.6,29.83,WNW,289,6.7,10.1,59,0.00,,---,0.04,VWS V14.01,2013-01-22 02:52:00,
2013-01-21 21:57:00,18.5,6.6,29.83,West,268,4.5,6.3,59,0.00,,---,0.04,VWS V14.01,2013-01-22 02:57:00,
2013-01-21 22:02:00,18.3,6.4,29.83,WSW,258,4.9,10.1,59,0.00,,---,0.04,VWS V14.01,2013-01-22 03:02:00,
2013-01-21 22:07:00,18.5,6.6,29.83,WNW,284,8.7,9.6,59,0.00,,---,0.04,VWS V14.01,2013-01-22 03:07:00,
2013-01-21 22:12:00,18.7,7.1,29.83,WSW,244,4.0,9.6,60,0.00,,---,0.04,VWS V14.01,2013-01-22 03:12:00,
2013-01-21 22:17:00,18.9,7.3,29.83,West,277,6.9,15.4,60,0.00,,---,0.04,VWS V14.01,2013-01-22 03:17:00,
2013-01-21 22:22:00,18.9,6.9,29.83,NW,315,12.5,12.5,59,0.00,,---,0.04,VWS V14.01,2013-01-22 03:22:00,
2013-01-21 22:27:00,18.9,6.9,29.83,WSW,255,0.0,6.9,59,0.00,,---,0.04,VWS V14.01,2013-01-22 03:27:00,
2013-01-21 22:32:00,18.5,6.2,29.83,North,356,0.0,8.3,58,0.00,,---,0.04,VWS V14.01,2013-01-22 03:32:00,
2013-01-21 22:37:00,18.1,5.9,29.83,WNW,289,10.1,10.1,58,0.00,,---,0.04,VWS V14.01,2013-01-22 03:37:00,
2013-01-21 22:42:00,18.0,5.3,29.83,WNW,303,6.3,8.7,57,0.00,,---,0.04,VWS V14.01,2013-01-22 03:42:00,
2013-01-21 22:47:00,18.0,5.3,29.83,West,276,3.6,8.3,57,0.00,,---,0.04,VWS V14.01,2013-01-22 03:47:00,
2013-01-21 22:52:00,17.6,5.0,29.83,West,276,13.4,13.4,57,0.00,,---,0.04,VWS V14.01,2013-01-22 03:52:00,
2013-01-21 22:57:00,17.6,5.0,29.83,West,275,3.6,8.7,57,0.00,,---,0.04,VWS V14.01,2013-01-22 03:57:00,
2013-01-21 23:02:00,17.4,4.8,29.83,West,275,5.8,8.3,57,0.00,,---,0.04,VWS V14.01,2013-01-22 04:02:00,
2013-01-21 23:07:00,17.2,4.6,29.83,WNW,299,6.9,6.9,57,0.00,,---,0.04,VWS V14.01,2013-01-22 04:07:00,
2013-01-21 23:12:00,17.2,4.6,29.83,SW,225,12.5,12.5,57,0.00,,---,0.04,VWS V14.01,2013-01-22 04:12:00,
2013-01-21 23:17:00,17.1,4.5,29.83,West,278,8.7,12.1,57,0.00,,---,0.04,VWS V14.01,2013-01-22 04:17:00,
2013-01-21 23:22:00,16.9,4.3,29.83,WSW,258,8.7,12.1,57,0.00,,---,0.04,VWS V14.01,2013-01-22 04:22:00,
2013-01-21 23:27:00,16.9,4.3,29.83,West,269,10.1,11.0,57,0.00,,---,0.04,VWS V14.01,2013-01-22 04:27:00,
2013-01-21 23:32:00,16.7,4.5,29.83,West,269,6.9,11.2,58,0.00,,---,0.04,VWS V14.01,2013-01-22 04:32:00,
2013-01-21 23:37:00,16.7,4.5,29.83,WNW,284,4.0,11.0,58,0.00,,---,0.04,VWS V14.01,2013-01-22 04:37:00,
2013-01-21 23:42:00,16.5,4.3,29.83,West,280,5.4,11.0,58,0.00,,---,0.04,VWS V14.01,2013-01-22 04:42:00,
2013-01-21 23:47:00,16.3,4.2,29.83,SW,228,5.4,15.4,58,0.00,,---,0.04,VWS V14.01,2013-01-22 04:47:00,
2013-01-21 23:52:00,16.3,4.2,29.83,West,280,9.6,13.4,58,0.00,,---,0.04,VWS V14.01,2013-01-22 04:52:00,
2013-01-21 23:57:00,16.0,3.8,29.83,WNW,286,8.7,13.4,58,0.00,,---,0.04,VWS V14.01,2013-01-22 04:57:00,